Regional Weather Roundup
Issued by NWS

Home | Current Version | Previous Version | Text Only | Print | Product List | Glossary Off
Versions: 1 2 3 4 5 6 7 8 9 10 11 12 13 14 15 16 17 18 19 20 21 22 23 24 25 26 27 28 29 30 31 32 33 34 35 36 37 38 39 40 41 42 43 44 45 46 47 48 49 50

000
ASUS43 KMKX 092000
RWRWI

WISCONSIN REGIONAL WEATHER ROUNDUP
NATIONAL WEATHER SERVICE MILWAUKEE/SULLIVAN WI
200 PM CST FRI DEC 09 2016

NOTE: "FAIR" INDICATES FEW OR NO CLOUDS BELOW 12,000 FEET WITH NO
SIGNIFICANT WEATHER AND/OR OBSTRUCTIONS TO VISIBILITY.

WIZ001-002-006>008-014>016-023>028-092100-
NORTHWEST WISCONSIN

CITY           SKY/WX    TMP DP  RH WIND       PRES   REMARKS
SUPERIOR ARPT  CLOUDY    14   2  58 NW9       30.50S WCI   2
ASHLAND        CLOUDY    16   6  65 W9        30.46S WCI   4
HAYWARD        CLOUDY    16   6  65 W7        30.43F WCI   6
SIREN          FLURRIES  17  10  75 W8        30.47F WCI   6
CUMBERLAND     FLURRIES  18  10  73 W10       30.44F WCI   6
RICE LAKE      LGT SNOW  18  12  76 SW9       30.47F WCI   7
CHETEK         FLURRIES  18  11  76 SW5       30.47S WCI  11
LADYSMITH      LGT SNOW  18  13  80 SW7       30.45S WCI   9
EAU CLAIRE     NOT AVBL
MENOMONIE      FLURRIES  20  13  74 SW8       30.50S WCI  10
NEW RICHMOND   LGT SNOW  19  11  71 W8        30.48F WCI   8
OSCEOLA        LGT SNOW  18  12  76 W6        30.52F WCI  10
$$

WIZ003>005-009-010-017-018-092100-
NORTH CENTRAL WISCONSIN

CITY           SKY/WX    TMP DP  RH WIND       PRES   REMARKS
MANITOWISH WTR CLOUDY    13   5  69 W13       30.37S WCI  -1
ARBOR VITAE    FLURRIES  17   9  70 W10       30.37S WCI   4
WOODRUFF       FLURRIES  17   9  70 W10       30.37S WCI   4
RHINELANDER    FLURRIES  16   7  67 NW8       30.37S WCI   5
EAGLE RIVER    CLOUDY    16   6  64 W12       30.34F WCI   3
LAND O LAKES   FLURRIES  17   9  70 W5        30.36R WCI  10
PHILLIPS       CLOUDY    15   8  71 W3        30.39S
TOMAHAWK       PTSUNNY   17   6  63 NW8       30.40F WCI   6
MEDFORD        CLOUDY    17   7  66 W8        30.40F WCI   6
MERRILL        CLOUDY    19   6  59 W13       30.41F WCI   5
$$

WIZ029-030-035-036-043>047-092100-
CENTRAL WISCONSIN

CITY           SKY/WX    TMP DP  RH WIND       PRES   REMARKS
WAUSAU         MOSUNNY   19   7  59 W10       30.40F WCI   7
MOSINEE        MOSUNNY   18   9  68 NW12G18   30.42F WCI   5
MARSHFIELD     SUNNY     18   8  65 W9        30.42F WCI   7
STEVENS POINT  PTSUNNY   18   7  62 W10G17    30.44S WCI   6
WAUPACA        SUNNY     26  10  52 W13       30.45S WCI  14
WAUTOMA        SUNNY     22  10  60 NW14      30.46F WCI   9
WISC RAPIDS    MOSUNNY   21   9  59 NW9       30.45F WCI  11
CAMP DOUGLAS   NOT AVBL
$$

WIZ011>013-019>022-031-037>040-048>050-092100-
NORTHEAST WISCONSIN

CITY           SKY/WX    TMP DP  RH WIND       PRES   REMARKS
ANTIGO         CLOUDY    17   8  66 W13G20    30.37F WCI   4
SHAWANO        PTSUNNY   25   7  47 NW8       30.42S WCI  16
OCONTO         PTSUNNY   24   8  50 NW9       30.39F WCI  15
STURGEON BAY   CLOUDY    25  10  53 W12       30.38S WCI  14
GREEN BAY      MOSUNNY   26  11  52 NW16G24   30.41S WCI  14
MANITOWOC      NOT AVBL
APPLETON       MOSUNNY   25   7  46 W17G23    30.40F WCI  11
CLINTONVILLE   SUNNY     25   7  46 NW14G20   30.42F WCI  13
OSHKOSH        SUNNY     24   9  52 W12G21    30.43S WCI  13
$$

WIZ032>034-041-042-053>061-092100-
SOUTHWEST WISCONSIN

CITY           SKY/WX    TMP DP  RH WIND       PRES   REMARKS
LA CROSSE      SUNNY     25   9  50 NW9       30.51F WCI  15
SPARTA         MOSUNNY   24  11  57 SW7       30.49F WCI  16
VIROQUA        MOSUNNY   20  12  70 SW7       30.46S WCI  11
BOSCOBEL       SUNNY     25  11  55 W6        30.52S WCI  18
PRAIRIE DU CHI SUNNY     23  11  60 W7        30.53S WCI  14
PLATTEVILLE    MOSUNNY   22  14  72 NW7       30.49F WCI  14
$$

WIZ056-057-062-063-064-067-068-092100-
SOUTH CENTRAL WISCONSIN

CITY           SKY/WX    TMP DP  RH WIND       PRES   REMARKS
REEDSBURG      SUNNY     24  10  55 W8        30.47F WCI  15
BARABOO/DELLS  SUNNY     24  10  54 W8        30.46F WCI  15
LONE ROCK      NOT AVBL
MINERAL POINT  SUNNY     23  14  68 W8        30.47F WCI  14
MADISON        MOSUNNY   23  10  57 NW8       30.47F WCI  14
MIDDLETON      SUNNY     26  13  58 NW8       30.47F WCI  18
WATERTOWN      SUNNY     23  12  63 W9        30.46F WCI  13
MONROE         SUNNY     23  14  68 W9        30.47F WCI  13
JANESVILLE     MOSUNNY   25  12  58 W10       30.48F WCI  15
$$

WIZ051-052-058>065-066-070>072-092100-
SOUTHEAST WISCONSIN

CITY           SKY/WX    TMP DP  RH WIND       PRES   REMARKS
MILWAUKEE      MOSUNNY   27   7  42 NW12      30.46S WCI  17
WAUKESHA       MOSUNNY   23  10  58 W14G20    30.46F WCI  11
MILWAUKEE/TIMM SUNNY     25   7  46 NW15G22   30.46F WCI  12
RACINE         SUNNY     27   8  44 W12       30.47F WCI  17
BURLINGTON     SUNNY     31  17  56 W9        30.47S WCI  23
KENOSHA        MOSUNNY   27  11  51 W14       30.46F WCI  16
FOND DU LAC    SUNNY     24   9  52 W13       30.44F WCI  12
SHEBOYGAN      PTSUNNY   24   8  50 NW20G25   30.43S WCI  10
WEST BEND      MOSUNNY   25  10  54 W13G18    30.44S WCI  13
JUNEAU         SUNNY     22  10  60 W7        30.46F WCI  13
$$

LSZ147-162-092100-
LAKE SUPERIOR

STATION/POSITION TIME  TEMP    WIND        PRES    WAVE
                       AIR SEA DIR/SP/G            HT/PER
                 (UTC) (F)     (DEG/KT/KT) (MB)    (FT/S)
DEVILS ISLAND    1900   17     280/ 11/ 15 1032.2F
PORT WING        1940   16     270/ 10/ 18 1031.8S
SAXON HARBOR     1940   18     280/  8/ 16 1030.8F
$$

LMZ867-665-643>646-092100-
LAKE MICHIGAN

STATION/POSITION TIME  TEMP    WIND        PRES    WAVE
                       AIR SEA DIR/SP/G            HT/PER
                 (UTC) (F)     (DEG/KT/KT) (MB)    (FT/S)
CHAMBERS ISLAND  1940   26     260/  5/ 11 1027.8F
NORTHPORT PIER   1948   27     300/ 11/ 17 1027.8F
SISTER BAY       1920   27     340/ 14/ 17   N/A
ALGOMA LAKESHORE 1851          330/ 13/ 15   N/A
KEWAUNEE LAKESHO 1930   24     300/  6/ 14 1028.6F
SHEBOYGAN LAKESH 1900   24     290/ 13/ 15 1031.1F
PORT WASHINGTON  1940   25     290/ 11/ 16 1031.8S
MILWAUKEE LAKESH 1930   25     310/ 13/ 17   N/A
KENOSHA   LAKESH 1900   25     300/ 10/ 17 1031.5
$$

TC  - TEMPERATURE IN CELSIUS
VSB - VISIBILITY IN STATUTE MILES
WCI - WIND CHILL INDEX
HX  - HEAT INDEX





USA.gov is the U.S. government's official web portal to all federal, state and local government web resources and services.